When you browse on this site, cookies collect data to enhance your experience and personalize the content and advertising you see.
Visit our Privacy Policy to learn more. By continuing to use the site, you agree to this use of cookies and data.
  • In Spain
  • List of Countries
  • For 7 days
  • Water Temperature
  • Weather Map
  • Weather Widgets
  • user-avatar
    Login

    Hourly Weather Starye Gorki 1

    Today, 23 August, Friday

    Time Temperature Precipitation Wind Pressure Humidity
    00:00 +15°C° 0 mm 5 mps 746 mmHg 86%
    01:00 +15°C° 0 mm 5 mps 747 mmHg 87%
    02:00 +14°C° 0 mm 4 mps 747 mmHg 86%
    03:00 +14°C° 0 mm 4 mps 747 mmHg 87%
    04:00 +14°C° 0 mm 4 mps 747 mmHg 87%
    05:00 +13°C° 0 mm 4 mps 747 mmHg 87%
    06:00 +14°C° 0 mm 5 mps 747 mmHg 84%
    07:00 +15°C° 0 mm 5 mps 748 mmHg 81%
    08:00 +16°C° 0 mm 5 mps 748 mmHg 78%
    09:00 +17°C° 0 mm 5 mps 748 mmHg 73%
    10:00 +20°C° 0 mm 5 mps 748 mmHg 69%
    11:00 +21°C° 0 mm 5 mps 748 mmHg 65%
    12:00 +21°C° 0 mm 5 mps 748 mmHg 63%
    13:00 +21°C° 0 mm 5 mps 748 mmHg 61%
    14:00 +22°C° 0 mm 5 mps 748 mmHg 59%
    15:00 +21°C° 0 mm 4 mps 748 mmHg 62%
    16:00 +21°C° 0 mm 3 mps 747 mmHg 66%
    17:00 +20°C° 0 mm 3 mps 747 mmHg 70%
    18:00 +19°C° 0 mm 3 mps 747 mmHg 74%
    19:00 +18°C° 0 mm 3 mps 747 mmHg 77%
    20:00 +16°C° 0 mm 2 mps 747 mmHg 81%
    21:00 +16°C° 0 mm 2 mps 747 mmHg 84%
    22:00 +15°C° 0 mm 2 mps 747 mmHg 86%
    23:00 +15°C° 0 mm 2 mps 747 mmHg 88%

    Tomorrow, 24 August, Saturday

    Time Temperature Precipitation Wind Pressure Humidity
    00:00 +14°C° 0 mm 2 mps 747 mmHg 89%
    01:00 +14°C° 0 mm 2 mps 747 mmHg 89%
    02:00 +14°C° 0 mm 2 mps 747 mmHg 90%
    03:00 +13°C° 0 mm 2 mps 747 mmHg 90%
    04:00 +13°C° 0 mm 2 mps 747 mmHg 90%
    05:00 +13°C° 0 mm 2 mps 747 mmHg 90%
    06:00 +15°C° 0 mm 2 mps 747 mmHg 83%
    07:00 +16°C° 0 mm 1 mps 747 mmHg 77%
    08:00 +19°C° 0 mm 1 mps 747 mmHg 70%
    09:00 +21°C° 0 mm 1 mps 747 mmHg 64%
    10:00 +22°C° 0 mm 1 mps 747 mmHg 57%
    11:00 +23°C° 0 mm 1 mps 747 mmHg 51%
    12:00 +23°C° 0 mm 1 mps 747 mmHg 49%
    13:00 +24°C° 0 mm 1 mps 746 mmHg 48%
    14:00 +24°C° 0 mm 2 mps 746 mmHg 46%
    15:00 +24°C° 0 mm 2 mps 746 mmHg 51%
    16:00 +23°C° 0 mm 2 mps 745 mmHg 56%
    17:00 +23°C° 0 mm 2 mps 745 mmHg 61%
    18:00 +20°C° 0 mm 2 mps 745 mmHg 65%
    19:00 +18°C° 0 mm 2 mps 745 mmHg 68%
    20:00 +18°C° 0 mm 1 mps 745 mmHg 71%
    21:00 +16°C° 0 mm 1 mps 745 mmHg 74%
    22:00 +16°C° 0 mm 2 mps 745 mmHg 76%
    23:00 +15°C° 0 mm 2 mps 745 mmHg 79%

    Day after tomorrow, 25 August, Sunday

    Time Temperature Precipitation Wind Pressure Humidity
    00:00 +15°C° 0 mm 2 mps 745 mmHg 82%
    01:00 +15°C° 0 mm 2 mps 745 mmHg 85%
    02:00 +14°C° 0 mm 2 mps 745 mmHg 89%
    03:00 +14°C° 0 mm 2 mps 745 mmHg 90%
    04:00 +14°C° 0 mm 2 mps 745 mmHg 92%
    05:00 +14°C° 0 mm 2 mps 745 mmHg 94%
    06:00 +15°C° 0 mm 2 mps 745 mmHg 89%
    07:00 +17°C° 0 mm 3 mps 745 mmHg 84%
    08:00 +19°C° 0 mm 3 mps 745 mmHg 79%
    09:00 +20°C° 0 mm 3 mps 746 mmHg 73%
    10:00 +21°C° 0 mm 3 mps 746 mmHg 67%
    11:00 +22°C° 0 mm 4 mps 746 mmHg 62%
    12:00 +22°C° 0 mm 4 mps 746 mmHg 59%
    13:00 +22°C° 0 mm 4 mps 746 mmHg 56%
    14:00 +22°C° 0 mm 4 mps 746 mmHg 53%
    15:00 +22°C° 0 mm 4 mps 746 mmHg 57%
    16:00 +21°C° 0 mm 3 mps 746 mmHg 62%
    17:00 +20°C° 0 mm 3 mps 746 mmHg 66%
    18:00 +19°C° 0 mm 3 mps 746 mmHg 71%
    19:00 +17°C° 0 mm 2 mps 746 mmHg 75%
    20:00 +16°C° 0 mm 2 mps 747 mmHg 80%
    21:00 +15°C° 0 mm 2 mps 747 mmHg 81%
    22:00 +15°C° 0 mm 2 mps 747 mmHg 83%
    23:00 +14°C° 0 mm 2 mps 748 mmHg 84%

    26 August, Monday

    Time Temperature Precipitation Wind Pressure Humidity
    00:00 +14°C° 0 mm 2 mps 748 mmHg 86%
    01:00 +13°C° 0 mm 2 mps 748 mmHg 88%
    02:00 +13°C° 0 mm 2 mps 748 mmHg 91%
    03:00 +12°C° 0 mm 2 mps 748 mmHg 91%
    04:00 +12°C° 0 mm 2 mps 748 mmHg 91%
    05:00 +12°C° 0 mm 1 mps 748 mmHg 91%
    06:00 +13°C° 0 mm 2 mps 748 mmHg 84%
    07:00 +15°C° 0 mm 2 mps 749 mmHg 78%
    08:00 +17°C° 0 mm 2 mps 749 mmHg 71%
    09:00 +18°C° 0 mm 2 mps 749 mmHg 65%
    10:00 +20°C° 0 mm 1 mps 749 mmHg 60%
    11:00 +21°C° 0 mm 1 mps 749 mmHg 54%
    12:00 +22°C° 0 mm 1 mps 749 mmHg 52%
    13:00 +23°C° 0 mm 1 mps 748 mmHg 49%
    14:00 +21°C° 0 mm 0 mps 748 mmHg 46%
    15:00 +21°C° 0 mm 0 mps 748 mmHg 50%
    16:00 +21°C° 0 mm 0 mps 747 mmHg 53%
    17:00 +20°C° 0 mm 0 mps 747 mmHg 57%
    18:00 +19°C° 0 mm 0 mps 747 mmHg 60%
    19:00 +17°C° 0 mm 0 mps 747 mmHg 63%
    20:00 +15°C° 0 mm 0 mps 747 mmHg 66%
    21:00 +16°C° 0 mm 1 mps 747 mmHg 67%
    22:00 +15°C° 0 mm 1 mps 747 mmHg 68%
    23:00 +15°C° 0 mm 1 mps 747 mmHg 70%

    27 August, Tuesday

    Time Temperature Precipitation Wind Pressure Humidity
    00:00 +14°C° 0 mm 1 mps 746 mmHg 71%
    01:00 +14°C° 0 mm 1 mps 746 mmHg 72%
    02:00 +14°C° 0 mm 2 mps 746 mmHg 73%
    03:00 +13°C° 0 mm 2 mps 745 mmHg 75%
    04:00 +13°C° 0 mm 2 mps 745 mmHg 76%
    05:00 +13°C° 0 mm 2 mps 745 mmHg 77%
    06:00 +14°C° 0 mm 2 mps 745 mmHg 75%
    07:00 +16°C° 0 mm 3 mps 745 mmHg 73%
    08:00 +17°C° 0 mm 3 mps 745 mmHg 71%
    09:00 +19°C° 0 mm 3 mps 745 mmHg 68%
    10:00 +20°C° 0 mm 4 mps 745 mmHg 64%
    11:00 +22°C° 0 mm 4 mps 744 mmHg 61%
    12:00 +22°C° 0 mm 4 mps 744 mmHg 61%
    13:00 +22°C° 0 mm 5 mps 744 mmHg 61%
    14:00 +23°C° 0 mm 5 mps 743 mmHg 61%
    15:00 +22°C° 0 mm 4 mps 743 mmHg 65%
    16:00 +22°C° 0 mm 4 mps 743 mmHg 69%
    17:00 +21°C° 0 mm 3 mps 743 mmHg 73%
    18:00 +20°C° 0 mm 3 mps 743 mmHg 77%
    19:00 +19°C° 0 mm 3 mps 743 mmHg 82%
    20:00 +17°C° 0 mm 3 mps 743 mmHg 86%
    21:00 +17°C° 0 mm 3 mps 743 mmHg 88%
    22:00 +16°C° 0 mm 3 mps 743 mmHg 90%
    23:00 +16°C° 0 mm 3 mps 743 mmHg 92%

    28 August, Wednesday

    Time Temperature Precipitation Wind Pressure Humidity
    00:00 +15°C° 0 mm 2 mps 743 mmHg 92%
    01:00 +15°C° 0 mm 2 mps 743 mmHg 93%
    02:00 +14°C° 0 mm 2 mps 743 mmHg 94%
    03:00 +14°C° 0 mm 2 mps 743 mmHg 93%
    04:00 +13°C° 0 mm 2 mps 744 mmHg 93%
    05:00 +13°C° 0 mm 2 mps 744 mmHg 92%
    06:00 +15°C° 0 mm 2 mps 744 mmHg 85%
    07:00 +16°C° 0 mm 3 mps 744 mmHg 79%
    08:00 +18°C° 0 mm 3 mps 745 mmHg 72%
    09:00 +19°C° 0 mm 3 mps 745 mmHg 67%
    10:00 +20°C° 0 mm 3 mps 745 mmHg 63%
    11:00 +21°C° 0 mm 4 mps 745 mmHg 58%
    12:00 +21°C° 0 mm 4 mps 745 mmHg 58%
    13:00 +21°C° 0 mm 4 mps 745 mmHg 57%
    14:00 +21°C° 0 mm 4 mps 745 mmHg 57%
    15:00 +20°C° 0 mm 4 mps 745 mmHg 59%
    16:00 +19°C° 0 mm 4 mps 745 mmHg 61%
    17:00 +18°C° 0 mm 3 mps 745 mmHg 63%
    18:00 +17°C° 0 mm 3 mps 745 mmHg 65%
    19:00 +14°C° 0 mm 3 mps 745 mmHg 67%
    20:00 +13°C° 0 mm 2 mps 745 mmHg 70%
    21:00 +13°C° 0 mm 2 mps 746 mmHg 70%
    22:00 +12°C° 0 mm 2 mps 746 mmHg 70%
    23:00 +10°C° 0 mm 2 mps 746 mmHg 70%
    Show more